[[{"header":{"parameterUnit":"m.s-1","parameterCategory":1,"la1":30.2992,"la2":30.254,"lo1":-89.0895,"lo2":-89.0443,"dy":0.0025,"dx":0.0025,"nx":19,"ny":19,"refTime":"2026-04-11T09:00:00:Z","depth":0,"parameterNumber":2,"parameterNumberName":"U-component_of_WINDS"},"data":[0,0,0,-4.5113,-4.5115,-4.5228,-4.5229,-4.5381,-4.5383,0,0,0,0,0,0,0,0,0,0,0,-4.5085,-4.5086,-4.5113,-4.5116,-4.5228,-4.5229,-4.5381,-4.5383,0,0,0,0,0,0,0,0,0,0,0,-4.5085,-4.5086,-4.5088,-4.5116,-4.5228,-4.5229,-4.5381,-4.5292,0,0,0,0,0,0,0,0,0,0,-4.5181,-4.5162,-4.5086,-4.5088,-4.5117,-4.5228,-4.5229,-4.5288,-4.5298,-4.5334,0,-4.5368,0,-4.5378,-4.5394,-4.5394,0,0,0,-4.5111,-4.5153,-4.5179,-4.5088,-4.5118,-4.5228,-4.5176,-4.5294,-4.5305,-4.5347,-4.537,-4.5375,-4.538,-4.5395,-4.5395,-4.5617,-4.5618,0,0,-4.5105,-4.5108,-4.5171,-4.5186,-4.517,-4.5173,-4.518,-4.53,-4.5325,-4.5371,-4.5379,-4.5383,-4.5396,-4.5397,-4.5616,-4.5618,0,0,0,-4.509,-4.5104,-4.5126,-4.518,-4.52,-4.5176,-4.5184,-4.532,-4.5327,-4.538,-4.5385,-4.5397,-4.5399,-4.5615,-4.5617,-4.5679,0,0,0,-4.5086,-4.5095,-4.5124,-4.5127,-4.5198,-4.5261,-4.5201,-4.5318,-4.5332,-4.5384,-4.5397,-4.54,-4.5613,-4.5616,-4.5675,-4.5708,0,0,0,-4.5076,-4.5094,-4.5113,-4.5127,-4.5176,-4.5259,-4.5273,-4.5321,-4.5335,-4.5394,-4.5401,-4.5612,-4.5615,-4.567,-4.5701,-4.5765,0,0,0,-4.5066,-4.5168,-4.5114,-4.5229,-4.5175,-4.5298,-4.5272,-4.5364,-4.5423,-4.5397,-4.5614,-4.5616,-4.5669,-4.5697,-4.5761,-4.5818,-4.5843,0,0,-4.5196,-4.5184,-4.5251,-4.5206,-4.534,-4.5281,-4.5424,-4.5474,-4.5478,-4.557,-4.5576,-4.5676,-4.57,-4.5764,-4.5986,-4.6005,0,0,0,-4.5294,-4.5342,-4.5377,-4.5433,-4.5474,-4.5512,-4.5541,-4.5559,-4.5638,-4.5526,-4.5718,-4.5732,-4.577,-4.5797,-4.5813,-4.5844,-4.563,-4.563,-4.5629,-4.5482,-4.548,-4.5591,-4.5603,-4.5658,-4.5686,-4.5729,-4.5759,-4.5742,-4.5788,-4.5814,-4.5949,-4.5981,-4.5993,-4.6025,-4.5846,-4.5847,-4.5847,-4.5847,-4.567,-4.5737,-4.5712,-4.5811,-4.5808,-4.5891,-4.5922,-4.5907,-4.5983,-4.5929,-4.5961,-4.59,-4.6015,-4.6043,-4.5852,-4.5851,-4.585,-4.585,-4.585,-4.5791,-4.5822,-4.5844,-4.5924,-4.5985,-4.5994,-4.6068,-4.6064,-4.606,-4.6093,-4.6119,-4.6118,-4.6114,-4.6106,-4.6106,-4.6107,-4.6107,-4.6108,-4.6108,-4.5906,-4.5929,-4.5991,-4.6043,-4.6078,-4.6123,-4.6153,-4.6187,-4.6223,-4.6213,-4.6214,-4.619,-4.6028,-4.5985,-4.6115,-4.6114,-4.6113,-4.6112,-4.6112,-4.6094,-4.6051,-4.6147,-4.6182,-4.6242,-4.6302,-4.6297,-4.6366,-4.6393,-4.6429,-4.64,-4.6281,-4.6268,-4.6254,-4.6219,-4.6402,-4.6402,-4.6402,-4.6402,-4.6193,-4.6187,-4.6283,-4.6339,-4.6393,-4.6397,-4.6505,-4.6529,-4.6547,-4.6564,-4.6537,-4.6491,-4.6478,-4.6472,-4.6454,-4.642,-4.665,-4.6651,-4.6651,-4.6307,-4.6306,-4.6398,-4.6415,-4.6462,-4.6502,-4.6602,-4.6666,-4.6678,-4.6661,-4.6576,-4.6565,-4.6491,-4.6467,-4.6445,-4.6417,-4.6356,0,0]},{"header":{"parameterUnit":"m.s-1","parameterCategory":1,"la1":30.2992,"la2":30.254,"lo1":-89.0895,"lo2":-89.0443,"dy":0.0025,"dx":0.0025,"nx":19,"ny":19,"refTime":"2026-04-11T09:00:00:Z","depth":0,"parameterNumber":3,"parameterNumberName":"V-component_of_WINDS"},"data":[0,0,0,4.5247,4.5249,4.5326,4.5326,4.5448,4.5449,0,0,0,0,0,0,0,0,0,0,0,4.5239,4.5241,4.5247,4.5249,4.5326,4.5326,4.5448,4.5449,0,0,0,0,0,0,0,0,0,0,0,4.5239,4.524,4.5242,4.525,4.5326,4.5326,4.5447,4.5381,0,0,0,0,0,0,0,0,0,0,4.5303,4.531,4.524,4.5242,4.525,4.5326,4.5326,4.5377,4.5385,4.5424,0,4.5462,0,4.5458,4.5459,4.5459,0,0,0,4.5238,4.5303,4.5311,4.5242,4.5251,4.5326,4.5288,4.5381,4.539,4.5434,4.5463,4.5467,4.546,4.546,4.5461,4.572,4.5722,0,0,4.5234,4.5261,4.5305,4.5317,4.5307,4.5286,4.5291,4.5386,4.542,4.5464,4.547,4.5462,4.5461,4.5462,4.5719,4.5721,0,0,0,4.5229,4.5259,4.5263,4.5313,4.5325,4.5288,4.5294,4.5416,4.5415,4.5471,4.5463,4.5462,4.5463,4.5717,4.572,4.5832,0,0,0,4.5226,4.5256,4.5262,4.5279,4.5324,4.5371,4.5322,4.5408,4.5418,4.5463,4.5462,4.5465,4.5715,4.5718,4.5825,4.5881,0,0,0,4.5229,4.5256,4.5272,4.528,4.5314,4.5369,4.5373,4.541,4.5414,4.5459,4.5465,4.5714,4.5718,4.5818,4.587,4.5958,0,0,0,4.524,4.5371,4.5274,4.5417,4.5314,4.5438,4.5372,4.5464,4.5516,4.5462,4.5715,4.5719,4.5816,4.5863,4.5951,4.6037,4.6075,0,0,4.542,4.5393,4.5475,4.5391,4.554,4.5424,4.5589,4.5611,4.5591,4.5678,4.5684,4.5827,4.5869,4.5956,4.6278,4.6309,0,0,0,4.5541,4.56,4.5634,4.5685,4.5705,4.5727,4.5721,4.5729,4.5802,4.5641,4.5881,4.5906,4.5955,4.5995,4.6021,4.6062,4.5739,4.5738,4.5738,4.5834,4.5801,4.5934,4.5911,4.5962,4.5954,4.5992,4.6002,4.5953,4.6011,4.6037,4.6236,4.6284,4.6303,4.6346,4.6079,4.6079,4.608,4.608,4.6095,4.6173,4.6106,4.6212,4.6176,4.6264,4.6262,4.6225,4.6302,4.6213,4.6256,4.6162,4.6337,4.6374,4.6088,4.6087,4.6086,4.6085,4.6084,4.6283,4.6315,4.6323,4.6394,4.6453,4.6424,4.6501,4.6466,4.6433,4.6475,4.6499,4.6497,4.6491,4.6488,4.6489,4.649,4.649,4.6491,4.6491,4.6476,4.6482,4.6551,4.6584,4.6613,4.6646,4.664,4.6667,4.6688,4.6656,4.6656,4.6602,4.636,4.6301,4.6502,4.65,4.6499,4.6498,4.6497,4.6754,4.6685,4.6793,4.6822,4.6858,4.6919,4.6872,4.693,4.6947,4.6987,4.6924,4.6751,4.6721,4.67,4.6651,4.693,4.693,4.693,4.6931,4.6914,4.6895,4.6997,4.7046,4.7089,4.7058,4.7181,4.7178,4.7164,4.7173,4.7127,4.7058,4.7038,4.702,4.6992,4.6946,4.7294,4.7294,4.7295,4.7083,4.7067,4.7178,4.7164,4.719,4.7212,4.7327,4.7385,4.7355,4.7309,4.7179,4.7164,4.7052,4.7017,4.6968,4.6926,4.6839,0,0]}]]